• In Belarus
  • List of Countries
  • For 7 days
  • Water Temperature
  • Satellite Maps
  • Weather Map
  • Weather Widgets
  • user-avatar
    Login

    Hourly Weather Newcastle

    Today, 25 September, Monday

    Time Temperature Precipitation Wind Pressure Humidity
    00:00 +20°C° 0 mm 2 mps 753 mmHg 40%
    01:00 +19°C° 0 mm 2 mps 753 mmHg 42%
    02:00 +19°C° 0 mm 2 mps 753 mmHg 44%
    03:00 +18°C° 0 mm 3 mps 754 mmHg 45%
    04:00 +18°C° 0 mm 3 mps 753 mmHg 50%
    05:00 +19°C° 0 mm 3 mps 754 mmHg 48%
    06:00 +19°C° 0 mm 4 mps 754 mmHg 46%
    07:00 +20°C° 0 mm 4 mps 755 mmHg 44%
    08:00 +22°C° 0 mm 4 mps 755 mmHg 36%
    09:00 +26°C° 0 mm 5 mps 755 mmHg 28%
    10:00 +29°C° 0 mm 5 mps 755 mmHg 21%
    11:00 +30°C° 0 mm 5 mps 754 mmHg 19%
    12:00 +32°C° 0 mm 5 mps 754 mmHg 18%
    13:00 +34°C° 0 mm 4 mps 754 mmHg 16%
    14:00 +32°C° 0 mm 4 mps 754 mmHg 19%
    15:00 +30°C° 0 mm 3 mps 754 mmHg 22%
    16:00 +28°C° 0 mm 3 mps 754 mmHg 25%
    17:00 +27°C° 0 mm 3 mps 755 mmHg 27%
    18:00 +25°C° 0 mm 3 mps 756 mmHg 29%
    19:00 +24°C° 0 mm 3 mps 757 mmHg 30%
    20:00 +23°C° 0 mm 2 mps 757 mmHg 32%
    21:00 +21°C° 0 mm 2 mps 758 mmHg 34%
    22:00 +19°C° 0 mm 2 mps 758 mmHg 36%
    23:00 +18°C° 0 mm 3 mps 759 mmHg 39%

    Tomorrow, 26 September, Tuesday

    Time Temperature Precipitation Wind Pressure Humidity
    00:00 +17°C° 0 mm 3 mps 759 mmHg 42%
    01:00 +14°C° 0 mm 4 mps 759 mmHg 46%
    02:00 +14°C° 0 mm 4 mps 759 mmHg 49%
    03:00 +13°C° 0 mm 4 mps 760 mmHg 51%
    04:00 +12°C° 0 mm 4 mps 760 mmHg 54%
    05:00 +13°C° 0 mm 4 mps 760 mmHg 54%
    06:00 +13°C° 0 mm 3 mps 761 mmHg 53%
    07:00 +14°C° 0 mm 3 mps 761 mmHg 53%
    08:00 +18°C° 0 mm 3 mps 761 mmHg 46%
    09:00 +21°C° 0 mm 2 mps 761 mmHg 39%
    10:00 +25°C° 0 mm 2 mps 761 mmHg 32%
    11:00 +25°C° 0 mm 2 mps 761 mmHg 30%
    12:00 +26°C° 0 mm 3 mps 761 mmHg 27%
    13:00 +27°C° 0 mm 3 mps 760 mmHg 25%
    14:00 +26°C° 0 mm 3 mps 760 mmHg 28%
    15:00 +25°C° 0 mm 4 mps 760 mmHg 32%
    16:00 +23°C° 0 mm 4 mps 760 mmHg 35%
    17:00 +21°C° 0 mm 4 mps 761 mmHg 47%
    18:00 +18°C° 0 mm 4 mps 761 mmHg 58%
    19:00 +14°C° 0 mm 4 mps 762 mmHg 70%
    20:00 +14°C° 0 mm 3 mps 762 mmHg 74%
    21:00 +13°C° 0 mm 3 mps 763 mmHg 79%
    22:00 +14°C° 0 mm 2 mps 764 mmHg 83%
    23:00 +14°C° 0 mm 2 mps 763 mmHg 85%

    Day after tomorrow, 27 September, Wednesday

    Time Temperature Precipitation Wind Pressure Humidity
    00:00 +13°C° 0 mm 2 mps 763 mmHg 86%
    01:00 +13°C° 0 mm 2 mps 763 mmHg 87%
    02:00 +12°C° 0 mm 3 mps 763 mmHg 88%
    03:00 +12°C° 0 mm 3 mps 762 mmHg 89%
    04:00 +12°C° 0 mm 3 mps 762 mmHg 90%
    05:00 +13°C° 0 mm 3 mps 762 mmHg 86%
    06:00 +14°C° 0 mm 3 mps 763 mmHg 81%
    07:00 +17°C° 0 mm 4 mps 763 mmHg 77%
    08:00 +19°C° 0 mm 4 mps 763 mmHg 69%
    09:00 +21°C° 0 mm 5 mps 762 mmHg 61%
    10:00 +25°C° 0 mm 5 mps 762 mmHg 53%
    11:00 +26°C° 0 mm 6 mps 760 mmHg 49%
    12:00 +28°C° 0 mm 7 mps 759 mmHg 46%
    13:00 +29°C° 0 mm 7 mps 758 mmHg 42%
    14:00 +29°C° 0 mm 7 mps 757 mmHg 45%
    15:00 +29°C° 0 mm 7 mps 756 mmHg 47%
    16:00 +29°C° 0 mm 7 mps 756 mmHg 50%
    17:00 +27°C° 0 mm 8 mps 755 mmHg 60%
    18:00 +24°C° 0 mm 8 mps 755 mmHg 69%
    19:00 +22°C° 0 mm 8 mps 755 mmHg 79%
    20:00 +21°C° 0 mm 8 mps 754 mmHg 80%
    21:00 +21°C° 0 mm 8 mps 754 mmHg 81%
    22:00 +20°C° 0 mm 7 mps 754 mmHg 82%
    23:00 +20°C° 0.1 mm 7 mps 754 mmHg 83%

    28 September, Thursday

    Time Temperature Precipitation Wind Pressure Humidity
    00:00 +20°C° 0.1 mm 6 mps 754 mmHg 84%
    01:00 +20°C° 0.1 mm 5 mps 754 mmHg 84%
    02:00 +19°C° 0.2 mm 5 mps 755 mmHg 86%
    03:00 +19°C° 0.2 mm 4 mps 755 mmHg 88%
    04:00 +18°C° 0.2 mm 3 mps 756 mmHg 90%
    05:00 +18°C° 0.1 mm 4 mps 756 mmHg 84%
    06:00 +19°C° 0.1 mm 5 mps 757 mmHg 78%
    07:00 +19°C° 0.1 mm 6 mps 757 mmHg 72%
    08:00 +19°C° 0.1 mm 6 mps 758 mmHg 68%
    09:00 +20°C° 0.1 mm 6 mps 758 mmHg 64%
    10:00 +21°C° 0.1 mm 6 mps 758 mmHg 60%
    11:00 +22°C° 0 mm 6 mps 758 mmHg 52%
    12:00 +23°C° 0 mm 6 mps 757 mmHg 44%
    13:00 +26°C° 0 mm 6 mps 757 mmHg 37%
    14:00 +26°C° 0 mm 5 mps 756 mmHg 35%
    15:00 +26°C° 0 mm 5 mps 756 mmHg 34%
    16:00 +26°C° 0 mm 4 mps 756 mmHg 32%
    17:00 +25°C° 0 mm 4 mps 757 mmHg 35%
    18:00 +22°C° 0 mm 4 mps 757 mmHg 39%
    19:00 +21°C° 0 mm 3 mps 758 mmHg 42%
    20:00 +20°C° 0 mm 3 mps 758 mmHg 43%
    21:00 +19°C° 0 mm 3 mps 759 mmHg 45%
    22:00 +19°C° 0 mm 3 mps 759 mmHg 47%
    23:00 +18°C° 0 mm 3 mps 759 mmHg 48%

    29 September, Friday

    Time Temperature Precipitation Wind Pressure Humidity
    00:00 +18°C° 0 mm 3 mps 759 mmHg 49%
    01:00 +17°C° 0 mm 3 mps 759 mmHg 50%
    02:00 +17°C° 0 mm 4 mps 759 mmHg 51%
    03:00 +17°C° 0 mm 4 mps 759 mmHg 51%
    04:00 +17°C° 0 mm 4 mps 759 mmHg 52%
    05:00 +17°C° 0 mm 4 mps 760 mmHg 53%
    06:00 +17°C° 0 mm 4 mps 761 mmHg 54%
    07:00 +17°C° 0 mm 4 mps 761 mmHg 56%
    08:00 +19°C° 0 mm 4 mps 761 mmHg 48%
    09:00 +21°C° 0 mm 4 mps 761 mmHg 40%
    10:00 +23°C° 0 mm 5 mps 761 mmHg 32%
    11:00 +25°C° 0 mm 4 mps 760 mmHg 30%
    12:00 +26°C° 0 mm 4 mps 760 mmHg 27%
    13:00 +27°C° 0 mm 3 mps 759 mmHg 24%
    14:00 +27°C° 0 mm 3 mps 759 mmHg 25%
    15:00 +27°C° 0 mm 4 mps 758 mmHg 25%
    16:00 +27°C° 0 mm 4 mps 758 mmHg 25%
    17:00 +24°C° 0 mm 3 mps 759 mmHg 32%
    18:00 +21°C° 0 mm 2 mps 759 mmHg 39%
    19:00 +18°C° 0 mm 2 mps 760 mmHg 46%
    20:00 +17°C° 0 mm 2 mps 760 mmHg 47%
    21:00 +16°C° 0 mm 2 mps 761 mmHg 48%
    22:00 +15°C° 0 mm 2 mps 761 mmHg 49%
    23:00 +15°C° 0 mm 2 mps 761 mmHg 50%

    30 September, Saturday

    Time Temperature Precipitation Wind Pressure Humidity
    00:00 +13°C° 0 mm 3 mps 761 mmHg 51%
    01:00 +13°C° 0 mm 3 mps 761 mmHg 52%
    02:00 +12°C° 0 mm 4 mps 761 mmHg 53%
    03:00 +12°C° 0 mm 4 mps 761 mmHg 53%
    04:00 +11°C° 0 mm 4 mps 761 mmHg 54%
    05:00 +12°C° 0 mm 4 mps 762 mmHg 51%
    06:00 +13°C° 0 mm 5 mps 762 mmHg 48%
    07:00 +14°C° 0 mm 5 mps 763 mmHg 44%
    08:00 +16°C° 0 mm 5 mps 763 mmHg 40%
    09:00 +20°C° 0 mm 5 mps 763 mmHg 35%
    10:00 +22°C° 0 mm 5 mps 763 mmHg 30%
    11:00 +23°C° 0 mm 5 mps 762 mmHg 26%
    12:00 +25°C° 0 mm 5 mps 762 mmHg 23%
    13:00 +27°C° 0 mm 5 mps 762 mmHg 20%
    14:00 +26°C° 0 mm 4 mps 762 mmHg 22%
    15:00 +26°C° 0 mm 4 mps 762 mmHg 23%
    16:00 +25°C° 0 mm 4 mps 762 mmHg 25%
    17:00 +21°C° 0 mm 3 mps 763 mmHg 36%
    18:00 +18°C° 0 mm 3 mps 764 mmHg 46%
    19:00 +14°C° 0 mm 3 mps 765 mmHg 57%
    20:00 +14°C° 0 mm 2 mps 765 mmHg 61%
    21:00 +13°C° 0 mm 2 mps 766 mmHg 66%
    22:00 +13°C° 0 mm 2 mps 767 mmHg 70%
    23:00 +12°C° 0 mm 2 mps 767 mmHg 72%
    Show more